Torna al catalogo

SL-14 R/B

AttivoPO
NORAD 18959·ROCKET BODY·🇷🇺 Russia

Lanciato Mar 15, 1988 da Plesetsk Cosmodrome

Loading…

Prossimi Passaggi (prossime 24 ore)

TLE

AggiornatoSource: Space-Track

Epoca: Sep 14, 2026, 06:23 UTC

1 18959U 88020B   26257.26601740  .00000312  00000-0  33000-4 0  9994
2 18959  82.5402 352.7428 0016864 146.9963 213.2310 14.85796664 60160

Traccia SL-14 R/B in tempo reale con AllMySat

Download on the App Store